Location: Sabalos
(43.2860°N, 0.1414°E)
Time: 21:07:31
(UTC+00:00)

Cosmos 2154 Rocket - Pass Details

Date: 05 July 2020
Orbit: 967 x 995 km, 82.9° (Epoch: 14 August)

Event Time Altitude Azimuth Distance (km) Brightness Sun altitude
Exits shadow 23:07:51 31° 216° (SW) 1,631 4.8 -22.8°
Maximum altitude 23:10:46 58° 281° (WNW) 1,125 4.4 -22.9°
Drops below altitude 10° 23:16:54 10° 0° (N) 2,723 7.4 -23.2°
Sets 23:19:29 0° 5° (N) 3,677 8.3 -23.3°
